User: anonymous   Login
Location: Newark
(45.8667°N, 9.7333°E)
Time: 10:53:52
(UTC+00:00)
Language:

ITAMSAT 1 - Orbit

View from above orbital plane
View from above orbital plane
View from above satellite
View from above satellite

Ground track
Ground track

The orbit data is extracted from the following two-line orbital elements,

1 22826U 93061D   21026.77482357  .00000011  00000-0  22011-4 0  9995
2 22826  98.9181  40.7810 0009971  76.6894 283.5399 14.30442113425973
Epoch (UTC): 26 January 2021 18:35:44
Eccentricity: 0.0009971
inclination: 98.9181°
perigee height: 783 km
apogee height: 797 km
right ascension of ascending node: 40.7810°
argument of perigee: 76.6894°
revolutions per day: 14.30442113
mean anomaly at epoch: 283.5399°
orbit number at epoch: 42597

The dashed part of the orbit path shows where the satellite is in the earth's shadow,  

DLR